| time (UTC) | temp F | wind direction | speed knots | gust knots | rain 1hr in | rain 24hr in | rain mn in | humidity % | barometer mb |
| 20260507101054 | 49 | 333 | 0.0 | 0.0 | 0.08 | 0.21 | 0.14 | 42 | 1006.8 |
| 20260507101050 | 49 | 333 | 0.0 | 0.0 | 0.09 | 0.21 | 0.14 | 43 | 1006.7 |
| 20260507100049 | 49 | 333 | 0.0 | 0.0 | 0.10 | 0.21 | 0.14 | 43 | 1006.4 |
| 20260507095549 | 49 | 326 | 0.0 | 0.0 | 0.09 | 0.20 | 0.13 | 43 | 1006.4 |
| 20260507095050 | 49 | 325 | 0.0 | 0.0 | 0.08 | 0.19 | 0.13 | 44 | 1006.5 |
| 20260507094550 | 50 | 86 | 0.0 | 1.7 | 0.08 | 0.19 | 0.12 | 44 | 1006.6 |
| 20260507094049 | 50 | 8 | 0.0 | 1.7 | 0.07 | 0.17 | 0.10 | 43 | 1006.4 |
| 20260507093551 | 50 | 60 | 0.0 | 0.0 | 0.07 | 0.17 | 0.10 | 44 | 1006.4 |
| 20260507093049 | 50 | 314 | 0.0 | 0.0 | 0.06 | 0.16 | 0.10 | 44 | 1006.3 |
| 20260507092549 | 51 | 78 | 0.0 | 0.0 | 0.06 | 0.16 | 0.09 | 45 | 1006.3 |
| 20260507092055 | 51 | 259 | 0.0 | 1.7 | 0.04 | 0.13 | 0.07 | 45 | 1006.4 |
| 20260507092051 | 51 | 35 | 0.0 | 0.0 | 0.06 | 0.15 | 0.08 | 45 | 1006.3 |
| 20260507091050 | 51 | 322 | 0.0 | 3.5 | 0.04 | 0.13 | 0.06 | 45 | 1006.4 |
| 20260507090550 | 51 | 333 | 0.0 | 3.5 | 0.03 | 0.12 | 0.05 | 44 | 1006.7 |
| 20260507090050 | 51 | 110 | 0.0 | 0.0 | 0.03 | 0.11 | 0.04 | 44 | 1006.6 |
| 20260507085550 | 51 | 11 | 0.0 | 0.0 | 0.03 | 0.11 | 0.04 | 44 | 1006.6 |
| 20260507085050 | 51 | 1 | 0.0 | 0.0 | 0.03 | 0.11 | 0.04 | 42 | 1006.7 |
| 20260507084549 | 52 | 307 | 0.0 | 0.0 | 0.03 | 0.11 | 0.04 | 42 | 1006.5 |
| 20260507084049 | 52 | 313 | 0.0 | 0.0 | 0.03 | 0.10 | 0.03 | 43 | 1006.2 |
| 20260507083549 | 52 | 326 | 0.0 | 0.9 | 0.03 | 0.10 | 0.03 | 44 | 1006.2 |
| 20260507083050 | 52 | 342 | 0.0 | 0.9 | 0.03 | 0.10 | 0.03 | 45 | 1006.2 |
| 20260507082553 | 52 | 41 | 0.0 | 0.0 | 0.02 | 0.09 | 0.02 | 47 | 1005.9 |
| 20260507082549 | 52 | 317 | 0.0 | 0.0 | 0.03 | 0.10 | 0.03 | 46 | 1006.2 |
| 20260507081550 | 52 | 288 | 0.0 | 2.6 | 0.02 | 0.09 | 0.02 | 49 | 1006.1 |
| 20260507081051 | 53 | 288 | 0.0 | 2.6 | 0.02 | 0.09 | 0.02 | 50 | 1006.5 |
| 20260507080545 | 53 | 123 | 0.0 | 3.5 | 0.02 | 0.09 | 0.02 | 52 | 1006.2 |
| 20260507080045 | 53 | 319 | 0.0 | 3.5 | 0.01 | 0.08 | 0.01 | 54 | 1006.0 |
| 20260507075545 | 53 | 141 | 0.0 | 2.6 | 0.01 | 0.08 | 0.01 | 55 | 1006.0 |
| 20260507075046 | 53 | 332 | 0.0 | 3.5 | 0.01 | 0.08 | 0.01 | 58 | 1006.1 |
| 20260507074543 | 54 | 4 | 0.0 | 3.5 | 0.01 | 0.08 | 0.01 | 60 | 1006.2 |
| 20260507074041 | 54 | 293 | 0.0 | 4.3 | 0.00 | 0.07 | 0.00 | 61 | 1006.2 |
| 20260507073538 | 54 | 310 | 0.0 | 4.3 | 0.00 | 0.07 | 0.00 | 62 | 1006.0 |
| 20260507073142 | 54 | 299 | 0.0 | 0.0 | 0.00 | 0.07 | 0.00 | 60 | 1005.4 |
| 20260507073043 | 54 | 310 | 0.0 | 0.0 | 0.00 | 0.07 | 0.00 | 60 | 1005.4 |
| 20260507073039 | 54 | 347 | 0.0 | 0.0 | 0.00 | 0.07 | 0.00 | 61 | 1005.5 |
| 20260507072746 | 54 | 326 | 0.0 | 0.0 | 0.00 | 0.07 | 0.00 | 59 | 1005.5 |
| 20260507071033 | 54 | 27 | 0.0 | 0.9 | 0.00 | 0.07 | 0.00 | 59 | 1005.6 |
| 20260507070533 | 54 | 335 | 0.0 | 0.9 | 0.00 | 0.07 | 0.00 | 60 | 1005.5 |
| 20260507070033 | 54 | 259 | 0.0 | 4.3 | 0.00 | 0.07 | 0.00 | 60 | 1005.3 |
| 20260507065531 | 54 | 330 | 0.0 | 4.3 | 0.00 | 0.07 | 0.00 | 60 | 1005.6 |
| 20260507065035 | 55 | 174 | 0.0 | 2.6 | 0.00 | 0.07 | 0.00 | 60 | 1005.6 |
| 20260507065031 | 55 | 2 | 0.0 | 0.9 | 0.00 | 0.07 | 0.00 | 59 | 1005.5 |
| 20260507064033 | 55 | 44 | 0.0 | 2.6 | 0.00 | 0.07 | 0.00 | 62 | 1005.4 |
| 20260507064029 | 55 | 226 | 0.0 | 2.6 | 0.00 | 0.07 | 0.00 | 61 | 1005.5 |
| 20260507063033 | 55 | 37 | 0.0 | 4.3 | 0.00 | 0.07 | 0.00 | 59 | 1005.4 |
| 20260507063029 | 55 | 84 | 0.0 | 4.3 | 0.00 | 0.07 | 0.00 | 61 | 1005.5 |
| 20260507062029 | 56 | 303 | 0.0 | 5.2 | 0.00 | 0.07 | 0.00 | 55 | 1005.0 |
| 20260507061528 | 56 | 323 | 0.0 | 5.2 | 0.00 | 0.07 | 0.00 | 49 | 1005.1 |
| 20260507061028 | 56 | 68 | 0.0 | 3.5 | 0.00 | 0.07 | 0.00 | 47 | 1005.3 |
| 20260507060527 | 56 | 318 | 0.0 | 4.3 | 0.00 | 0.07 | 0.00 | 46 | 1005.5 |
| 20260507060027 | 56 | 262 | 0.0 | 4.3 | 0.00 | 0.07 | 0.00 | 46 | 1005.4 |
| 20260507055529 | 56 | 302 | 0.0 | 2.6 | 0.00 | 0.07 | 0.00 | 45 | 1005.4 |
| 20260507055027 | 57 | 336 | 0.0 | 0.0 | 0.00 | 0.07 | 0.00 | 45 | 1005.5 |
| 20260507054527 | 57 | 300 | 0.0 | 0.0 | 0.00 | 0.07 | 0.00 | 45 | 1005.9 |
| 20260507054026 | 57 | 60 | 0.0 | 0.0 | 0.00 | 0.07 | 0.00 | 45 | 1005.8 |
| 20260507053526 | 57 | 112 | 0.0 | 0.0 | 0.00 | 0.07 | 0.00 | 46 | 1005.8 |
| 20260507053026 | 57 | 80 | 0.0 | 1.7 | 0.00 | 0.07 | 0.00 | 45 | 1005.7 |
| 20260507052529 | 57 | 142 | 0.0 | 3.5 | 0.00 | 0.07 | 0.00 | 44 | 1005.4 |
| 20260507052524 | 57 | 300 | 0.0 | 1.7 | 0.00 | 0.07 | 0.00 | 46 | 1005.4 |
| 20260507052130 | 58 | 142 | 0.0 | 4.3 | 0.00 | 0.07 | 0.00 | 42 | 1005.4 |
| 20260507051630 | 58 | 258 | 0.0 | 4.3 | 0.00 | 0.07 | 0.00 | 39 | 1005.5 |
| 20260507050526 | 58 | 300 | 0.0 | 0.0 | 0.00 | 0.07 | 0.00 | 33 | 1005.4 |
| 20260507050025 | 58 | 300 | 0.0 | 0.0 | 0.00 | 0.07 | 0.00 | 33 | 1005.5 |
| 20260507045529 | 58 | 312 | 0.0 | 4.3 | 0.00 | 0.07 | 0.00 | 32 | 1005.4 |
| 20260507045525 | 58 | 333 | 0.0 | 4.3 | 0.00 | 0.07 | 0.00 | 31 | 1005.4 |
| 20260507044523 | 59 | 258 | 0.0 | 2.6 | 0.01 | 0.07 | 0.00 | 30 | 1005.2 |
| 20260507044022 | 59 | 233 | 0.0 | 0.0 | 0.01 | 0.07 | 0.00 | 30 | 1005.3 |
| 20260507043524 | 59 | 269 | 0.0 | 0.0 | 0.01 | 0.07 | 0.00 | 30 | 1005.2 |
| 20260507043520 | 59 | 30 | 0.0 | 0.0 | 0.01 | 0.07 | 0.00 | 30 | 1005.2 |
| 20260507042519 | 59 | 219 | 0.0 | 0.0 | 0.01 | 0.07 | 0.00 | 30 | 1005.3 |
| 20260507042019 | 59 | 221 | 0.0 | 0.0 | 0.01 | 0.07 | 0.00 | 30 | 1005.3 |
| 20260507041523 | 59 | 221 | 0.0 | 0.0 | 0.01 | 0.07 | 0.00 | 30 | 1005.5 |
| 20260507041519 | 59 | 221 | 0.0 | 0.0 | 0.01 | 0.07 | 0.00 | 30 | 1005.4 |
| 20260507040523 | 59 | 341 | 0.0 | 0.0 | 0.01 | 0.07 | 0.00 | 30 | 1005.7 |
| 20260507040519 | 59 | 189 | 0.0 | 0.0 | 0.01 | 0.07 | 0.00 | 30 | 1005.6 |
| 20260507035519 | 59 | 254 | 0.0 | 0.0 | 0.01 | 0.07 | 0.07 | 30 | 1005.6 |
| 20260507035019 | 59 | 225 | 0.0 | 0.0 | 0.01 | 0.07 | 0.07 | 30 | 1005.6 |
| 20260507034519 | 59 | 336 | 0.0 | 0.0 | 0.00 | 0.06 | 0.06 | 31 | 1005.4 |
| 20260507034017 | 59 | 255 | 0.0 | 5.2 | 0.00 | 0.06 | 0.06 | 31 | 1005.3 |
| 20260507033517 | 59 | 257 | 0.0 | 5.2 | 0.00 | 0.06 | 0.06 | 32 | 1005.4 |
| 20260507033021 | 59 | 73 | 0.0 | 0.0 | 0.00 | 0.06 | 0.06 | 32 | 1005.1 |
| 20260507033017 | 59 | 138 | 0.0 | 0.0 | 0.00 | 0.06 | 0.06 | 32 | 1005.2 |
| 20260507032016 | 59 | 233 | 0.0 | 0.0 | 0.00 | 0.06 | 0.06 | 32 | 1005.0 |
| 20260507031515 | 59 | 295 | 0.0 | 4.3 | 0.00 | 0.06 | 0.06 | 32 | 1005.0 |
| 20260507031015 | 59 | 138 | 0.0 | 4.3 | 0.00 | 0.06 | 0.06 | 32 | 1005.0 |
| 20260507030513 | 59 | 248 | 0.0 | 1.7 | 0.00 | 0.06 | 0.06 | 32 | 1004.7 |
| 20260507030013 | 59 | 115 | 0.0 | 1.7 | 0.00 | 0.06 | 0.06 | 32 | 1004.8 |
| 20260507025513 | 59 | 109 | 0.0 | 4.3 | 0.00 | 0.06 | 0.06 | 32 | 1004.9 |
| 20260507025011 | 59 | 216 | 0.0 | 4.3 | 0.00 | 0.06 | 0.06 | 32 | 1005.0 |
| 20260507024515 | 59 | 285 | 0.0 | 0.0 | 0.00 | 0.06 | 0.06 | 31 | 1005.0 |
| 20260507024511 | 59 | 233 | 0.0 | 0.0 | 0.00 | 0.06 | 0.06 | 31 | 1005.0 |
| 20260507023511 | 59 | 116 | 0.0 | 0.0 | 0.00 | 0.06 | 0.06 | 31 | 1005.1 |
| 20260507023011 | 59 | 153 | 0.0 | 0.0 | 0.00 | 0.06 | 0.06 | 31 | 1005.1 |
| 20260507022511 | 59 | 226 | 0.0 | 0.0 | 0.00 | 0.06 | 0.06 | 31 | 1005.1 |
| 20260507022016 | 59 | 124 | 0.0 | 0.0 | 0.00 | 0.06 | 0.06 | 31 | 1005.1 |
| 20260507022011 | 59 | 115 | 0.0 | 0.0 | 0.00 | 0.06 | 0.06 | 31 | 1005.1 |
| 20260507021011 | 59 | 110 | 0.0 | 1.7 | 0.00 | 0.06 | 0.06 | 31 | 1005.0 |
| 20260507020510 | 58 | 130 | 0.0 | 4.3 | 0.00 | 0.06 | 0.06 | 31 | 1005.1 |
| 20260507020013 | 58 | 118 | 0.0 | 0.0 | 0.00 | 0.06 | 0.06 | 31 | 1005.1 |
| 20260507020009 | 58 | 209 | 0.0 | 4.3 | 0.00 | 0.06 | 0.06 | 31 | 1005.0 |
| 20260507015009 | 58 | 142 | 0.0 | 0.0 | 0.00 | 0.06 | 0.06 | 31 | 1005.2 |
| 20260507014510 | 58 | 267 | 0.0 | 0.0 | 0.00 | 0.06 | 0.06 | 31 | 1005.3 |
| 20260507014009 | 58 | 280 | 0.0 | 2.6 | 0.00 | 0.06 | 0.06 | 31 | 1005.2 |
| 20260507013509 | 58 | 264 | 0.0 | 2.6 | 0.00 | 0.06 | 0.06 | 31 | 1005.3 |
| 20260507013009 | 58 | 224 | 0.9 | 5.2 | 0.00 | 0.06 | 0.06 | 31 | 1005.2 |
| 20260507012508 | 58 | 222 | 0.9 | 5.2 | 0.00 | 0.06 | 0.06 | 31 | 1005.3 |
| 20260507012009 | 58 | 122 | 0.9 | 5.2 | 0.00 | 0.06 | 0.06 | 31 | 1005.4 |
| 20260507011508 | 58 | 122 | 0.0 | 5.2 | 0.00 | 0.06 | 0.06 | 31 | 1005.4 |
| 20260507011007 | 58 | 66 | 0.0 | 5.2 | 0.00 | 0.06 | 0.06 | 31 | 1005.5 |
| 20260507010506 | 58 | 301 | 0.0 | 1.7 | 0.00 | 0.06 | 0.06 | 31 | 1005.5 |
| 20260507010007 | 58 | 131 | 0.0 | 0.0 | 0.00 | 0.06 | 0.06 | 31 | 1005.5 |
| 20260507005507 | 58 | 115 | 0.0 | 0.0 | 0.01 | 0.06 | 0.06 | 31 | 1005.5 |
| 20260507005007 | 57 | 144 | 0.0 | 0.0 | 0.01 | 0.06 | 0.06 | 30 | 1005.4 |
| 20260507004508 | 57 | 217 | 0.0 | 7.0 | 0.01 | 0.06 | 0.06 | 30 | 1005.4 |
| 20260507004007 | 57 | 120 | 0.0 | 7.0 | 0.01 | 0.06 | 0.06 | 30 | 1005.5 |
| 20260507003506 | 57 | 124 | 0.0 | 3.5 | 0.01 | 0.06 | 0.06 | 30 | 1005.6 |
| 20260507003007 | 57 | 244 | 0.9 | 3.5 | 0.01 | 0.06 | 0.06 | 30 | 1005.5 |
| 20260507002507 | 57 | 51 | 0.0 | 3.5 | 0.02 | 0.06 | 0.06 | 30 | 1005.5 |
| 20260507002005 | 57 | 121 | 0.0 | 4.3 | 0.02 | 0.06 | 0.06 | 30 | 1005.4 |
| 20260507001504 | 57 | 172 | 0.0 | 4.3 | 0.02 | 0.06 | 0.06 | 30 | 1005.3 |
| 20260507001005 | 57 | 180 | 0.0 | 3.5 | 0.02 | 0.06 | 0.06 | 30 | 1005.2 |
| 20260507000505 | 57 | 109 | 0.0 | 3.5 | 0.02 | 0.06 | 0.06 | 30 | 1005.2 |
| 20260507000006 | 57 | 180 | 0.9 | 6.1 | 0.02 | 0.06 | 0.06 | 30 | 1005.3 |
| 20260506235506 | 57 | 113 | 0.9 | 6.1 | 0.01 | 0.05 | 0.05 | 30 | 1005.4 |
| 20260506235002 | 57 | 115 | 0.9 | 5.2 | 0.01 | 0.05 | 0.05 | 30 | 1005.4 |
| 20260506234503 | 57 | 235 | 0.9 | 8.7 | 0.01 | 0.05 | 0.05 | 30 | 1005.4 |
| 20260506234003 | 57 | 186 | 0.9 | 8.7 | 0.02 | 0.05 | 0.05 | 30 | 1005.3 |
| 20260506233504 | 57 | 139 | 0.9 | 6.1 | 0.02 | 0.05 | 0.05 | 30 | 1005.2 |
| 20260506233002 | 57 | 141 | 0.0 | 4.3 | 0.02 | 0.05 | 0.05 | 30 | 1005.2 |
| 20260506232501 | 57 | 266 | 0.0 | 0.0 | 0.01 | 0.04 | 0.04 | 30 | 1005.2 |
| 20260506232000 | 57 | 141 | 0.0 | 0.0 | 0.01 | 0.04 | 0.04 | 30 | 1005.3 |
| 20260506231501 | 57 | 111 | 0.0 | 0.0 | 0.01 | 0.04 | 0.04 | 30 | 1005.4 |
| 20260506230959 | 57 | 134 | 0.0 | 0.0 | 0.01 | 0.04 | 0.04 | 30 | 1005.5 |
| 20260506230502 | 58 | 113 | 0.0 | 5.2 | 0.01 | 0.04 | 0.04 | 30 | 1005.4 |
| 20260506230458 | 57 | 132 | 0.0 | 2.6 | 0.01 | 0.04 | 0.04 | 30 | 1005.3 |
| 20260506225459 | 58 | 102 | 0.9 | 5.2 | 0.01 | 0.04 | 0.04 | 30 | 1005.3 |
| 20260506224957 | 58 | 84 | 0.0 | 5.2 | 0.01 | 0.04 | 0.04 | 31 | 1005.6 |
| 20260506224454 | 58 | 125 | 0.9 | 6.1 | 0.02 | 0.04 | 0.04 | 31 | 1005.5 |
| 20260506223955 | 58 | 162 | 0.9 | 6.1 | 0.01 | 0.03 | 0.03 | 31 | 1005.6 |
| 20260506223455 | 58 | 284 | 0.0 | 5.2 | 0.01 | 0.03 | 0.03 | 31 | 1005.8 |
| 20260506222952 | 58 | 135 | 0.9 | 5.2 | 0.01 | 0.03 | 0.03 | 32 | 1005.8 |
| 20260506222458 | 59 | 167 | 0.0 | 5.2 | 0.01 | 0.03 | 0.03 | 32 | 1005.8 |
| 20260506222454 | 59 | 82 | 0.9 | 5.2 | 0.01 | 0.03 | 0.03 | 32 | 1005.8 |
| 20260506221450 | 59 | 146 | 0.0 | 4.3 | 0.01 | 0.03 | 0.03 | 32 | 1005.8 |
| 20260506220956 | 59 | 96 | 0.9 | 6.1 | 0.01 | 0.03 | 0.03 | 33 | 1006.0 |
| 20260506220952 | 59 | 138 | 0.0 | 6.1 | 0.01 | 0.03 | 0.03 | 32 | 1005.9 |
| 20260506215948 | 60 | 127 | 0.9 | 6.1 | 0.01 | 0.03 | 0.03 | 33 | 1006.0 |
| 20260506215449 | 60 | 121 | 0.9 | 6.1 | 0.01 | 0.03 | 0.03 | 35 | 1006.1 |
| 20260506214947 | 60 | 130 | 0.9 | 7.0 | 0.01 | 0.03 | 0.03 | 36 | 1006.1 |
| 20260506214446 | 60 | 141 | 0.9 | 7.0 | 0.00 | 0.02 | 0.02 | 37 | 1006.2 |
| 20260506213946 | 60 | 113 | 0.0 | 4.3 | 0.00 | 0.02 | 0.02 | 38 | 1006.2 |
| 20260506213445 | 60 | 128 | 0.0 | 4.3 | 0.00 | 0.02 | 0.02 | 38 | 1006.2 |
| 20260506212942 | 60 | 95 | 0.9 | 5.2 | 0.00 | 0.02 | 0.02 | 39 | 1006.2 |
| 20260506212443 | 60 | 124 | 0.0 | 5.2 | 0.00 | 0.02 | 0.02 | 39 | 1006.3 |
| 20260506211943 | 60 | 103 | 0.0 | 0.9 | 0.00 | 0.02 | 0.02 | 39 | 1006.2 |
| 20260506211444 | 61 | 143 | 0.0 | 3.5 | 0.00 | 0.02 | 0.02 | 41 | 1006.3 |
| 20260506211440 | 60 | 150 | 0.0 | 0.9 | 0.00 | 0.02 | 0.02 | 40 | 1006.3 |
| 20260506210439 | 61 | 224 | 0.0 | 3.5 | 0.01 | 0.02 | 0.02 | 42 | 1006.2 |
| 20260506205942 | 61 | 32 | 0.0 | 3.5 | 0.01 | 0.02 | 0.02 | 43 | 1006.3 |
| 20260506205938 | 61 | 263 | 0.0 | 2.6 | 0.01 | 0.02 | 0.02 | 45 | 1006.4 |
| 20260506204937 | 61 | 248 | 0.0 | 1.7 | 0.01 | 0.02 | 0.02 | 47 | 1006.5 |
| 20260506204437 | 61 | 208 | 0.0 | 0.0 | 0.01 | 0.02 | 0.02 | 49 | 1006.4 |
| 20260506203936 | 61 | 115 | 0.0 | 2.6 | 0.02 | 0.02 | 0.02 | 52 | 1006.4 |
| 20260506203436 | 61 | 139 | 0.0 | 4.3 | 0.02 | 0.02 | 0.02 | 53 | 1006.5 |
| 20260506202937 | 61 | 132 | 0.0 | 4.3 | 0.02 | 0.02 | 0.02 | 54 | 1006.5 |
| 20260506202436 | 61 | 255 | 0.0 | 4.3 | 0.02 | 0.02 | 0.02 | 55 | 1006.3 |
| 20260506201936 | 61 | 101 | 0.0 | 0.9 | 0.02 | 0.02 | 0.02 | 55 | 1006.3 |
| 20260506201436 | 62 | 134 | 0.0 | 0.0 | 0.02 | 0.02 | 0.02 | 55 | 1006.1 |
| 20260506200937 | 62 | 135 | 0.0 | 0.0 | 0.02 | 0.02 | 0.02 | 55 | 1006.1 |
| 20260506200436 | 62 | 135 | 0.0 | 1.7 | 0.01 | 0.01 | 0.01 | 55 | 1006.2 |
| 20260506195937 | 62 | 153 | 0.0 | 1.7 | 0.01 | 0.01 | 0.01 | 56 | 1006.2 |
| 20260506195436 | 62 | 337 | 0.0 | 1.7 | 0.01 | 0.01 | 0.01 | 58 | 1006.4 |
| 20260506194937 | 62 | 141 | 0.0 | 1.7 | 0.01 | 0.01 | 0.01 | 59 | 1006.5 |
| 20260506194436 | 63 | 139 | 0.0 | 1.7 | 0.01 | 0.01 | 0.01 | 60 | 1006.6 |
| 20260506193936 | 63 | 121 | 0.0 | 1.7 | 0.00 | 0.00 | 0.00 | 61 | 1006.5 |
| 20260506193436 | 63 | 133 | 0.0 | 0.0 | 0.00 | 0.00 | 0.00 | 62 | 1006.6 |
| 20260506192938 | 64 | 159 | 0.0 | 0.0 | 0.00 | 0.00 | 0.00 | 63 | 1006.7 |
| 20260506192436 | 64 | 129 | 0.0 | 0.9 | 0.00 | 0.00 | 0.00 | 64 | 1006.6 |
| 20260506191938 | 64 | 134 | 0.0 | 2.6 | 0.00 | 0.00 | 0.00 | 65 | 1006.5 |
| 20260506191435 | 65 | 133 | 0.0 | 2.6 | 0.00 | 0.00 | 0.00 | 65 | 1006.4 |
| 20260506190934 | 65 | 115 | 0.0 | 4.3 | 0.00 | 0.00 | 0.00 | 65 | 1006.4 |
| 20260506190435 | 65 | 133 | 0.0 | 5.2 | 0.00 | 0.00 | 0.00 | 65 | 1006.4 |
| 20260506185936 | 65 | 122 | 0.0 | 2.6 | 0.00 | 0.00 | 0.00 | 65 | 1006.5 |
| 20260506185932 | 65 | 148 | 0.0 | 5.2 | 0.00 | 0.00 | 0.00 | 65 | 1006.4 |
| 20260506184933 | 65 | 174 | 0.0 | 0.9 | 0.00 | 0.00 | 0.00 | 65 | 1006.5 |
| 20260506184430 | 65 | 191 | 0.0 | 0.0 | 0.00 | 0.00 | 0.00 | 65 | 1006.5 |
| 20260506183932 | 65 | 138 | 0.0 | 0.9 | 0.00 | 0.00 | 0.00 | 65 | 1006.5 |
| 20260506183426 | 65 | 171 | 0.0 | 0.9 | 0.00 | 0.00 | 0.00 | 65 | 1006.5 |
| 20260506182926 | 66 | 135 | 0.0 | 3.5 | 0.00 | 0.00 | 0.00 | 65 | 1006.6 |
| 20260506182426 | 66 | 159 | 0.0 | 3.5 | 0.00 | 0.00 | 0.00 | 65 | 1006.5 |
| 20260506181928 | 66 | 120 | 0.0 | 5.2 | 0.00 | 0.00 | 0.00 | 65 | 1006.6 |
| 20260506181428 | 67 | 148 | 0.0 | 5.2 | 0.00 | 0.00 | 0.00 | 64 | 1006.6 |
| 20260506181424 | 67 | 147 | 0.0 | 5.2 | 0.00 | 0.00 | 0.00 | 64 | 1006.8 |
| 20260506180428 | 67 | 61 | 0.0 | 0.0 | 0.00 | 0.00 | 0.00 | 65 | 1006.9 |
| 20260506180424 | 67 | 129 | 0.0 | 1.7 | 0.00 | 0.00 | 0.00 | 64 | 1006.9 |
| 20260506175424 | 67 | 107 | 0.0 | 0.0 | 0.00 | 0.00 | 0.00 | 65 | 1007.0 |
| 20260506174923 | 67 | 100 | 0.0 | 1.7 | 0.00 | 0.00 | 0.00 | 64 | 1007.1 |
| 20260506174422 | 67 | 131 | 0.0 | 1.7 | 0.00 | 0.00 | 0.00 | 64 | 1007.1 |
| 20260506173921 | 67 | 141 | 0.0 | 0.0 | 0.00 | 0.00 | 0.00 | 64 | 1007.2 |
| 20260506173420 | 67 | 134 | 0.0 | 0.9 | 0.00 | 0.00 | 0.00 | 64 | 1007.2 |
| 20260506172920 | 67 | 88 | 0.0 | 3.5 | 0.00 | 0.00 | 0.00 | 64 | 1007.3 |
| 20260506172419 | 67 | 96 | 0.0 | 3.5 | 0.00 | 0.00 | 0.00 | 65 | 1007.3 |
| 20260506171922 | 67 | 121 | 0.0 | 0.0 | 0.00 | 0.00 | 0.00 | 65 | 1007.2 |
| 20260506171918 | 67 | 121 | 0.0 | 3.5 | 0.00 | 0.00 | 0.00 | 65 | 1007.3 |
| 20260506170918 | 67 | 146 | 0.0 | 0.0 | 0.00 | 0.00 | 0.00 | 65 | 1007.3 |
| 20260506170418 | 67 | 148 | 0.0 | 0.0 | 0.00 | 0.00 | 0.00 | 65 | 1007.4 |
| 20260506165919 | 67 | 126 | 0.0 | 0.0 | 0.00 | 0.00 | 0.00 | 64 | 1007.5 |
| 20260506165418 | 67 | 101 | 0.0 | 1.7 | 0.00 | 0.00 | 0.00 | 65 | 1007.6 |
| 20260506164918 | 67 | 133 | 0.0 | 1.7 | 0.00 | 0.00 | 0.00 | 65 | 1007.5 |
| 20260506164420 | 67 | 98 | 0.0 | 0.9 | 0.00 | 0.00 | 0.00 | 65 | 1007.6 |
| 20260506164416 | 67 | 122 | 0.0 | 0.0 | 0.00 | 0.00 | 0.00 | 64 | 1007.6 |
| 20260506163416 | 68 | 129 | 0.0 | 0.0 | 0.00 | 0.00 | 0.00 | 64 | 1007.7 |
| 20260506162916 | 68 | 132 | 0.0 | 0.9 | 0.00 | 0.00 | 0.00 | 64 | 1007.8 |
| 20260506162421 | 68 | 124 | 0.0 | 1.7 | 0.00 | 0.00 | 0.00 | 64 | 1008.0 |
| 20260506162417 | 68 | 136 | 0.0 | 0.9 | 0.00 | 0.00 | 0.00 | 64 | 1007.8 |
| 20260506161414 | 68 | 253 | 0.0 | 1.7 | 0.00 | 0.00 | 0.00 | 64 | 1008.0 |
| 20260506160914 | 68 | 90 | 0.0 | 0.9 | 0.00 | 0.00 | 0.00 | 64 | 1008.1 |
| 20260506160415 | 68 | 138 | 0.0 | 0.9 | 0.00 | 0.00 | 0.00 | 64 | 1008.3 |
| 20260506155916 | 68 | 166 | 0.0 | 0.0 | 0.00 | 0.00 | 0.00 | 63 | 1008.2 |
| 20260506155415 | 68 | 221 | 0.0 | 2.6 | 0.00 | 0.00 | 0.00 | 63 | 1008.4 |
| 20260506154915 | 68 | 90 | 0.0 | 2.6 | 0.00 | 0.00 | 0.00 | 63 | 1008.3 |
| 20260506154414 | 69 | 201 | 0.0 | 1.7 | 0.00 | 0.00 | 0.00 | 63 | 1008.4 |
| 20260506153913 | 69 | 164 | 0.0 | 3.5 | 0.00 | 0.00 | 0.00 | 63 | 1008.6 |
| 20260506153412 | 69 | 157 | 0.0 | 3.5 | 0.00 | 0.00 | 0.00 | 63 | 1008.6 |
| 20260506152916 | 69 | 105 | 0.0 | 0.9 | 0.00 | 0.00 | 0.00 | 62 | 1008.7 |
| 20260506152912 | 69 | 136 | 0.0 | 0.0 | 0.00 | 0.00 | 0.00 | 63 | 1008.6 |
| 20260506151912 | 69 | 134 | 0.0 | 6.1 | 0.00 | 0.00 | 0.00 | 63 | 1008.8 |
| 20260506151412 | 69 | 141 | 0.0 | 6.1 | 0.00 | 0.00 | 0.00 | 63 | 1008.7 |
| 20260506150912 | 69 | 194 | 0.0 | 0.9 | 0.00 | 0.00 | 0.00 | 64 | 1008.9 |
| 20260506150416 | 68 | 130 | 0.0 | 0.0 | 0.00 | 0.00 | 0.00 | 64 | 1008.9 |
| 20260506150412 | 68 | 77 | 0.0 | 0.9 | 0.00 | 0.00 | 0.00 | 64 | 1008.9 |
| 20260506145414 | 68 | 175 | 0.0 | 3.5 | 0.00 | 0.00 | 0.00 | 64 | 1008.9 |
| 20260506144916 | 68 | 144 | 0.0 | 3.5 | 0.00 | 0.00 | 0.00 | 64 | 1008.8 |
| 20260506144912 | 67 | 125 | 0.0 | 5.2 | 0.00 | 0.00 | 0.00 | 65 | 1008.8 |
| 20260506144513 | 67 | 127 | 0.0 | 5.2 | 0.00 | 0.00 | 0.00 | 65 | 1008.8 |
| 20260506143410 | 67 | 140 | 0.0 | 2.6 | 0.00 | 0.00 | 0.00 | 65 | 1008.7 |
| 20260506142910 | 67 | 105 | 0.0 | 0.0 | 0.00 | 0.00 | 0.00 | 65 | 1008.6 |
| 20260506142410 | 67 | 137 | 0.0 | 0.0 | 0.00 | 0.00 | 0.00 | 65 | 1008.7 |
| 20260506141910 | 66 | 148 | 0.0 | 0.0 | 0.00 | 0.00 | 0.00 | 66 | 1008.7 |
| 20260506141409 | 66 | 107 | 0.0 | 0.0 | 0.00 | 0.00 | 0.00 | 66 | 1008.9 |
| 20260506140910 | 66 | 92 | 0.0 | 0.0 | 0.00 | 0.00 | 0.00 | 66 | 1008.8 |
| 20260506140410 | 65 | 142 | 0.0 | 0.0 | 0.00 | 0.00 | 0.00 | 65 | 1008.9 |
| 20260506140014 | 64 | 136 | 0.0 | 0.0 | 0.00 | 0.00 | 0.00 | 65 | 1009.0 |
| 20260506135913 | 64 | 264 | 0.0 | 0.0 | 0.00 | 0.00 | 0.00 | 65 | 1008.8 |
| 20260506135909 | 65 | 321 | 0.0 | 0.0 | 0.00 | 0.00 | 0.00 | 65 | 1008.8 |
| 20260506135014 | 64 | 140 | 0.0 | 0.0 | 0.00 | 0.00 | 0.00 | 65 | 1009.2 |
| 20260506133905 | 64 | 129 | 0.0 | 0.0 | 0.00 | 0.00 | 0.00 | 65 | 1009.4 |
| 20260506133406 | 64 | 203 | 0.0 | 0.9 | 0.00 | 0.00 | 0.00 | 65 | 1009.4 |
| 20260506133010 | 64 | 178 | 0.0 | 4.3 | 0.00 | 0.00 | 0.00 | 65 | 1009.2 |
| 20260506132908 | 64 | 113 | 0.0 | 4.3 | 0.00 | 0.00 | 0.00 | 65 | 1009.4 |
| 20260506132904 | 64 | 135 | 0.0 | 0.9 | 0.00 | 0.00 | 0.00 | 65 | 1009.4 |
| 20260506131403 | 64 | 134 | 0.0 | 2.6 | 0.00 | 0.00 | 0.00 | 65 | 1009.2 |
| 20260506130903 | 64 | 71 | 0.0 | 0.9 | 0.00 | 0.00 | 0.00 | 64 | 1009.2 |
| 20260506130404 | 64 | 131 | 0.0 | 0.9 | 0.00 | 0.00 | 0.00 | 65 | 1009.3 |
| 20260506125903 | 64 | 161 | 0.0 | 0.0 | 0.00 | 0.00 | 0.00 | 64 | 1009.3 |
| 20260506125408 | 63 | 196 | 0.0 | 5.2 | 0.00 | 0.00 | 0.00 | 63 | 1009.4 |
| 20260506125404 | 63 | 139 | 0.0 | 5.2 | 0.00 | 0.00 | 0.00 | 64 | 1009.3 |
| 20260506124405 | 63 | 110 | 0.0 | 2.6 | 0.00 | 0.00 | 0.00 | 62 | 1009.6 |
| 20260506123904 | 62 | 212 | 0.0 | 2.6 | 0.00 | 0.00 | 0.00 | 60 | 1009.6 |
| 20260506123404 | 62 | 206 | 0.0 | 2.6 | 0.00 | 0.00 | 0.00 | 61 | 1009.5 |
| 20260506122903 | 62 | 160 | 0.0 | 2.6 | 0.00 | 0.00 | 0.00 | 61 | 1009.4 |
| 20260506122403 | 62 | 278 | 0.0 | 3.5 | 0.00 | 0.00 | 0.00 | 59 | 1009.1 |
| 20260506121902 | 61 | 113 | 0.0 | 5.2 | 0.00 | 0.00 | 0.00 | 58 | 1009.3 |
| 20260506121407 | 61 | 222 | 0.0 | 4.3 | 0.00 | 0.00 | 0.00 | 56 | 1009.5 |
| 20260506121403 | 61 | 89 | 0.0 | 5.2 | 0.00 | 0.00 | 0.00 | 57 | 1009.2 |
| 20260506120403 | 60 | 150 | 0.0 | 5.2 | 0.00 | 0.00 | 0.00 | 55 | 1009.7 |
| 20260506115901 | 60 | 144 | 0.0 | 5.2 | 0.00 | 0.00 | 0.00 | 55 | 1009.6 |
| 20260506115359 | 60 | 210 | 0.0 | 0.9 | 0.00 | 0.00 | 0.00 | 55 | 1009.6 |
| 20260506114904 | 60 | 151 | 0.0 | 5.2 | 0.00 | 0.00 | 0.00 | 54 | 1009.9 |
| 20260506114900 | 60 | 143 | 0.0 | 0.9 | 0.00 | 0.00 | 0.00 | 55 | 1009.7 |
| 20260506113859 | 60 | 143 | 0.0 | 5.2 | 0.00 | 0.00 | 0.00 | 53 | 1009.9 |
| 20260506113359 | 60 | 178 | 0.0 | 3.5 | 0.00 | 0.00 | 0.00 | 52 | 1009.8 |
| 20260506112900 | 60 | 145 | 0.0 | 3.5 | 0.00 | 0.00 | 0.00 | 53 | 1009.6 |
| 20260506112400 | 60 | 98 | 0.9 | 3.5 | 0.00 | 0.00 | 0.00 | 53 | 1009.8 |
| 20260506111857 | 60 | 141 | 0.9 | 6.1 | 0.00 | 0.00 | 0.00 | 53 | 1009.8 |
| 20260506111357 | 60 | 143 | 0.9 | 6.1 | 0.00 | 0.00 | 0.00 | 52 | 1009.7 |
| 20260506110902 | 59 | 143 | 0.0 | 6.1 | 0.00 | 0.00 | 0.00 | 50 | 1009.7 |
| 20260506110858 | 59 | 137 | 0.0 | 0.0 | 0.00 | 0.00 | 0.00 | 50 | 1009.6 |
| 20260506105859 | 59 | 118 | 0.9 | 6.1 | 0.00 | 0.00 | 0.00 | 50 | 1009.7 |
| 20260506105358 | 59 | 143 | 0.9 | 5.2 | 0.00 | 0.00 | 0.00 | 51 | 1009.7 |
| 20260506104857 | 59 | 130 | 0.0 | 4.3 | 0.00 | 0.00 | 0.00 | 51 | 1009.7 |
| 20260506104355 | 59 | 233 | 0.0 | 3.5 | 0.00 | 0.00 | 0.00 | 51 | 1009.7 |
| 20260506103856 | 59 | 148 | 0.9 | 4.3 | 0.00 | 0.00 | 0.00 | 52 | 1009.9 |
| 20260506103358 | 59 | 148 | 0.0 | 3.5 | 0.00 | 0.00 | 0.00 | 52 | 1009.7 |
| 20260506103354 | 59 | 79 | 0.0 | 4.3 | 0.00 | 0.00 | 0.00 | 52 | 1009.8 |
| 20260506102353 | 59 | 83 | 0.0 | 2.6 | 0.00 | 0.00 | 0.00 | 53 | 1009.8 |
| 20260506101854 | 59 | 100 | 0.0 | 2.6 | 0.00 | 0.00 | 0.00 | 53 | 1009.6 |